Flight Track Log - Related Links

Times and Time Zones

All times are in EDT time to prevent confusion due to time zone crossing. See the EJA929 flight status page for this flight to view local times or setup timezone preferences in your user account.

Time Position Orientation Groundspeed Altitude Reporting Facility
EDT Latitude Longitude Course Direction KTS MPH feet Rate Location/Type
Sat 12:30:14 PM 42.9333 -87.9000 160° South 171 197 1,400  Level KMKE
Sat 12:30:56 PM 42.9000 -87.8833 160° South 201 231 3,500 1,529 Climbing KMKE
Sat 12:31:56 PM 42.8500 -87.8167 136° Southeast 258 297 4,000 278 Climbing KMKE
Sat 12:32:44 PM 42.8000 -87.7667 144° Southeast 263 303 4,000  Level KMKE
Sat 12:33:50 PM 42.7333 -87.7000 144° Southeast 251 289 4,000  Level KMKE
Sat 12:35:15 PM 42.6611 -87.6469 152° Southeast 251 289 4,000  Level Chicago Center
Sat 12:36:17 PM 42.5939 -87.6208 164° South 252 290 4,000  Level Chicago Center
Sat 12:37:19 PM 42.5297 -87.5931 162° South 245 282 4,000  Level Chicago Center
Sat 12:38:21 PM 42.4519 -87.5614 163° South 244 281 4,000  Level Chicago Center
Sat 12:39:23 PM 42.3867 -87.5361 164° South 245 282 4,000  Level Chicago Center
Sat 12:40:25 PM 42.3164 -87.5181 169° South 255 293 4,000  Level Chicago Center
Sat 12:41:27 PM 42.2508 -87.5131 177° South 257 296 4,000  Level Chicago Center
Sat 12:42:29 PM 42.1692 -87.4992 173° South 251 289 4,000  Level Chicago Center
Sat 12:43:31 PM 42.1022 -87.4894 174° South 247 284 4,000  Level Chicago Center
Sat 12:44:33 PM 42.0322 -87.4789 174° South 249 287 4,000  Level Chicago Center
Sat 12:45:35 PM 41.9622 -87.4675 173° South 252 290 4,000 -290 Level Chicago Center
Sat 12:46:37 PM 41.9078 -87.4594 174° South 223 257 3,400 -726 Descending Chicago Center
Sat 12:47:39 PM 41.8508 -87.4861 199° South 196 226 2,500 -435 Descending Chicago Center
Sat 12:48:41 PM 41.8356 -87.5483 252° West 181 208 2,500  Level Chicago Center
Sat 12:49:43 PM 41.8361 -87.6144 271° West 177 204 2,500 -145 Level Chicago Center
Sat 12:50:45 PM 41.8300 -87.6769 263° West 179 206 2,200 -629 Descending Chicago Center
Sat 12:51:47 PM 41.8106 -87.7222 240° Southwest 156 180 1,200 -532 Descending Chicago Center
Sat 12:52:49 PM 41.7897 -87.7606 234° Southwest 151 174 1,100 -97 Descending Chicago Center
Sat 12:54:00 PM 41.7833 -87.7500 166° South  Level FlightAware Approximate

Login

Don't have an account? Register now (free) for customized features, flight alerts, and more!